Great Bend, KS

12:51 AM CST on February 20, 2017 (GMT -0600)
Great Bend Municipal

Weather History for KGBD - May, 2013

Change the Weather History Date:

Tuesday, May 21, 2013

  Actual Average Record
Temperature  
Mean Temperature 62 °F -  
Max Temperature 75 °F 79 °F 100 °F (1966)
Min Temperature 50 °F 55 °F 39 °F (2015)
Degree Days  
Heating Degree Days 2    
Growing Degree Days 12 (Base 50)    
Moisture  
Dew Point 41 °F    
Average Humidity 50    
Maximum Humidity 76    
Minimum Humidity 27    
Precipitation  
Precipitation 0.00 in - - ()
Sea Level Pressure  
Sea Level Pressure 29.82 in    
Wind  
Wind Speed 13 mph (NW)    
Max Wind Speed 25 mph    
Max Gust Speed 33 mph    
Visibility 10 miles    
Events      
Averages and records for this station are not official NWS values.
T = Trace of Precipitation, MM = Missing Value Source: NWS Daily Summary

Daily Weather History Graph

Daily Weather History Graph

Search for Another Location

Airport or City:

Trip Planner

Search our weather history database for the weather conditions in past years. The results will help you decide how hot, cold, wet, or windy it might be!

Date:

Astronomy

May. 21, 2013 Rise Set
Actual Time 6:19 AM CDT 8:45 PM CDT
Civil Twilight 5:49 AM CDT 9:15 PM CDT
Nautical Twilight 5:11 AM CDT 9:53 PM CDT
Astronomical Twilight 4:30 AM CDT 10:34 PM CDT
Moon 5:03 PM CDT (5/21) 3:45 AM CDT (5/21)
Length of Visible Light 15h 26m
Length of Day
14h 25m
Waxing Gibbous, 84% of the Moon is Illuminated
May 21
Waxing Gibbous
May 24
Full
May 31
Last Quarter
Jun 8
New
Jun 16
First Quarter

Hourly Weather History & Observations

Time (CDT) Temp. Dew Point Humidity Pressure Visibility Wind Dir Wind Speed Gust Speed Precip Events Conditions
12:15 AM 57.2 °F 42.8 °F 59% 29.84 in 10.0 mi WNW 12.7 mph - N/A   Clear
12:35 AM 55.4 °F 42.8 °F 63% 29.85 in 10.0 mi West 12.7 mph - N/A   Clear
12:55 AM 55.4 °F 42.8 °F 63% 29.85 in 10.0 mi West 12.7 mph - N/A   Clear
1:15 AM 55.4 °F 42.8 °F 63% 29.85 in 10.0 mi West 11.5 mph - N/A   Clear
1:35 AM 55.4 °F 42.8 °F 63% 29.85 in 10.0 mi WNW 12.7 mph - N/A   Clear
1:55 AM 53.6 °F 42.8 °F 67% 29.84 in 10.0 mi WNW 11.5 mph - N/A   Clear
2:15 AM 53.6 °F 42.8 °F 67% 29.83 in 10.0 mi NW 10.4 mph - N/A   Clear
2:35 AM 53.6 °F 42.8 °F 67% 29.82 in 10.0 mi WNW 9.2 mph - N/A   Clear
2:55 AM 53.6 °F 42.8 °F 67% 29.84 in 10.0 mi West 11.5 mph - N/A   Clear
3:15 AM 51.8 °F 42.8 °F 71% 29.84 in 10.0 mi WSW 8.1 mph - N/A   Clear
3:35 AM 51.8 °F 42.8 °F 71% 29.84 in 10.0 mi West 9.2 mph - N/A   Clear
3:55 AM 50.0 °F 42.8 °F 76% 29.84 in 10.0 mi West 9.2 mph - N/A   Clear
4:15 AM 50.0 °F 42.8 °F 76% 29.82 in 10.0 mi WNW 12.7 mph - N/A   Clear
4:35 AM 50.0 °F 42.8 °F 76% 29.84 in 10.0 mi West 10.4 mph - N/A   Clear
4:55 AM 50.0 °F 42.8 °F 76% 29.85 in 10.0 mi West 12.7 mph - N/A   Clear
5:15 AM 50.0 °F 42.8 °F 76% 29.85 in 10.0 mi West 11.5 mph - N/A   Clear
5:35 AM 51.8 °F 42.8 °F 71% 29.85 in 10.0 mi West 11.5 mph - N/A   Clear
5:55 AM 51.8 °F 41.0 °F 67% 29.85 in 10.0 mi West 10.4 mph - N/A   Clear
6:15 AM 50.0 °F 41.0 °F 71% 29.86 in 10.0 mi West 12.7 mph - N/A   Clear
6:35 AM 50.0 °F 41.0 °F 71% 29.86 in 10.0 mi West 12.7 mph - N/A   Clear
6:55 AM 51.8 °F 41.0 °F 67% 29.86 in 10.0 mi West 12.7 mph - N/A   Clear
7:15 AM 53.6 °F 42.8 °F 67% 29.85 in 10.0 mi WNW 16.1 mph - N/A   Clear
7:35 AM 53.6 °F 42.8 °F 67% 29.85 in 10.0 mi WNW 19.6 mph 24.2 mph N/A   Clear
7:55 AM 55.4 °F 42.8 °F 63% 29.86 in 10.0 mi WNW 17.3 mph 23.0 mph N/A   Clear
8:15 AM 57.2 °F 42.8 °F 59% 29.85 in 10.0 mi NW 19.6 mph 26.5 mph N/A   Clear
8:35 AM 59.0 °F 42.8 °F 55% 29.87 in 10.0 mi NW 18.4 mph 24.2 mph N/A   Clear
8:55 AM 60.8 °F 44.6 °F 55% 29.86 in 10.0 mi NW 23.0 mph 27.6 mph N/A   Clear
9:15 AM 62.6 °F 44.6 °F 52% 29.87 in 10.0 mi NW 23.0 mph 27.6 mph N/A   Clear
9:35 AM 62.6 °F 44.6 °F 52% 29.86 in 10.0 mi NW 20.7 mph 26.5 mph N/A   Clear
9:55 AM 64.4 °F 44.6 °F 49% 29.85 in 10.0 mi NW 24.2 mph 28.8 mph N/A   Clear
10:15 AM 64.4 °F 42.8 °F 45% 29.84 in 10.0 mi NW 21.9 mph 29.9 mph N/A   Clear
10:35 AM 66.2 °F 42.8 °F 43% 29.83 in 10.0 mi NNW 21.9 mph 32.2 mph N/A   Clear
10:55 AM 66.2 °F 41.0 °F 40% 29.84 in 10.0 mi NNW 25.3 mph 33.4 mph N/A   Clear
11:15 AM 66.2 °F 39.2 °F 37% 29.84 in 10.0 mi NW 24.2 mph 33.4 mph N/A   Clear
11:35 AM 68.0 °F 39.2 °F 35% 29.84 in 10.0 mi North 23.0 mph 32.2 mph N/A   Clear
11:55 AM 69.8 °F 39.2 °F 33% 29.82 in 10.0 mi NNW 18.4 mph 25.3 mph N/A   Clear
12:15 PM 71.6 °F 41.0 °F 33% 29.82 in 10.0 mi NW 19.6 mph 31.1 mph N/A   Clear
12:35 PM 69.8 °F 41.0 °F 35% 29.84 in 10.0 mi NNW 13.8 mph 24.2 mph N/A   Partly Cloudy
12:55 PM 71.6 °F 41.0 °F 33% 29.85 in 10.0 mi NNW 9.2 mph 16.1 mph N/A   Partly Cloudy
1:15 PM 71.6 °F 41.0 °F 33% 29.84 in 10.0 mi WNW 9.2 mph 23.0 mph N/A   Partly Cloudy
1:35 PM 71.6 °F 42.8 °F 35% 29.83 in 10.0 mi WNW 15.0 mph 19.6 mph N/A   Mostly Cloudy
1:55 PM 73.4 °F 41.0 °F 31% 29.82 in 10.0 mi WNW 13.8 mph 24.2 mph N/A   Mostly Cloudy
2:15 PM 73.4 °F 39.2 °F 29% 29.83 in 10.0 mi NW 9.2 mph 21.9 mph N/A   Overcast
2:35 PM 73.4 °F 39.2 °F 29% 29.82 in 10.0 mi WNW 9.2 mph 16.1 mph N/A   Overcast
2:55 PM 75.2 °F 39.2 °F 27% 29.81 in 10.0 mi NW 9.2 mph 20.7 mph N/A   Mostly Cloudy
3:15 PM 73.4 °F 39.2 °F 29% 29.80 in 10.0 mi NNW 16.1 mph 19.6 mph N/A   Overcast
3:35 PM 73.4 °F 41.0 °F 31% 29.78 in 10.0 mi NW 13.8 mph 23.0 mph N/A   Mostly Cloudy
3:55 PM 73.4 °F 41.0 °F 31% 29.77 in 10.0 mi WNW 16.1 mph 20.7 mph N/A   Scattered Clouds
4:15 PM 73.4 °F 41.0 °F 31% 29.77 in 10.0 mi NNW 16.1 mph 20.7 mph N/A   Mostly Cloudy
4:35 PM 75.2 °F 42.8 °F 31% 29.77 in 10.0 mi NW 19.6 mph 23.0 mph N/A   Mostly Cloudy
4:55 PM 73.4 °F 39.2 °F 29% 29.76 in 10.0 mi WNW 9.2 mph 19.6 mph N/A   Mostly Cloudy
5:15 PM 73.4 °F 39.2 °F 29% 29.75 in 10.0 mi WNW 13.8 mph - N/A   Scattered Clouds
5:35 PM 75.2 °F 41.0 °F 29% 29.75 in 10.0 mi NW 15.0 mph 21.9 mph N/A   Scattered Clouds
5:55 PM 75.2 °F 41.0 °F 29% 29.75 in 10.0 mi NW 15.0 mph 25.3 mph N/A   Scattered Clouds
6:15 PM 73.4 °F 39.2 °F 29% 29.76 in 10.0 mi NNW 16.1 mph 24.2 mph N/A   Mostly Cloudy
6:35 PM 73.4 °F 41.0 °F 31% 29.75 in 10.0 mi North 15.0 mph 23.0 mph N/A   Scattered Clouds
6:55 PM 73.4 °F 41.0 °F 31% 29.76 in 10.0 mi NNW 13.8 mph 20.7 mph N/A   Partly Cloudy
7:15 PM 71.6 °F 39.2 °F 31% 29.77 in 10.0 mi NNW 16.1 mph 20.7 mph N/A   Clear
7:35 PM 71.6 °F 39.2 °F 31% 29.78 in 10.0 mi NNW 11.5 mph 21.9 mph N/A   Clear
7:55 PM 69.8 °F 39.2 °F 33% 29.79 in 10.0 mi NNW 13.8 mph 20.7 mph N/A   Clear
8:15 PM 68.0 °F 41.0 °F 37% 29.79 in 10.0 mi NNW 11.5 mph - N/A   Clear
8:35 PM 66.2 °F 39.2 °F 37% 29.79 in 10.0 mi NNW 10.4 mph - N/A   Clear
8:55 PM 62.6 °F 41.0 °F 45% 29.80 in 10.0 mi NNW 9.2 mph - N/A   Clear
9:15 PM 60.8 °F 41.0 °F 48% 29.80 in 10.0 mi NNW 8.1 mph - N/A   Clear
9:35 PM 60.8 °F 41.0 °F 48% 29.81 in 10.0 mi NNW 6.9 mph - N/A   Clear
9:55 PM 57.2 °F 41.0 °F 55% 29.82 in 10.0 mi NNW 6.9 mph - N/A   Clear
10:15 PM 57.2 °F 41.0 °F 55% 29.82 in 10.0 mi NW 5.8 mph - N/A   Clear
10:35 PM 55.4 °F 41.0 °F 58% 29.84 in 10.0 mi NW 5.8 mph - N/A   Clear
10:55 PM 53.6 °F 41.0 °F 62% 29.85 in 10.0 mi NNW 9.2 mph - N/A   Clear
11:15 PM 55.4 °F 41.0 °F 58% 29.85 in 10.0 mi NW 6.9 mph - N/A   Clear
11:35 PM 51.8 °F 41.0 °F 67% 29.85 in 10.0 mi NW 6.9 mph - N/A   Clear
11:55 PM 50.0 °F 39.2 °F 66% 29.85 in 10.0 mi NW 8.1 mph - N/A   Clear